TimePDT,TemperatureF,Dew PointF,Humidity,Sea Level PressureIn,VisibilityMPH,Wind Direction,Wind SpeedMPH,Gust SpeedMPH,PrecipitationIn,Events,Conditions,WindDirDegrees,DateUTC
12:56 AM,64.0,43.0,46,30.03,10.0,Calm,Calm,-,N/A,,Clear,0,2013-07-09 07:56:00
1:56 AM,55.0,41.0,59,30.04,10.0,South,3.5,-,N/A,,Clear,170,2013-07-09 08:56:00
2:56 AM,53.1,41.0,64,30.05,10.0,South,5.8,-,N/A,,Clear,170,2013-07-09 09:56:00
3:56 AM,53.1,41.0,64,30.05,10.0,SSE,5.8,-,N/A,,Clear,160,2013-07-09 10:56:00
4:56 AM,52.0,41.0,66,30.06,10.0,South,5.8,-,N/A,,Clear,170,2013-07-09 11:56:00
5:56 AM,48.0,39.0,71,30.07,10.0,Calm,Calm,-,N/A,,Clear,0,2013-07-09 12:56:00
6:56 AM,57.9,42.1,56,30.06,10.0,Calm,Calm,-,N/A,,Clear,0,2013-07-09 13:56:00
7:56 AM,66.0,42.1,42,30.06,10.0,ESE,3.5,-,N/A,,Clear,110,2013-07-09 14:56:00
8:56 AM,72.0,42.1,34,30.06,10.0,Variable,3.5,-,N/A,,Clear,0,2013-07-09 15:56:00
9:56 AM,75.9,41.0,29,30.05,10.0,Variable,3.5,-,N/A,,Clear,0,2013-07-09 16:56:00
10:56 AM,81.0,39.9,23,30.04,10.0,Calm,Calm,-,N/A,,Clear,0,2013-07-09 17:56:00
11:56 AM,84.9,39.9,20,30.02,10.0,North,8.1,-,N/A,,Clear,350,2013-07-09 18:56:00
12:56 PM,90.0,39.9,17,29.99,10.0,NW,6.9,-,N/A,,Clear,320,2013-07-09 19:56:00
1:56 PM,91.9,39.0,16,29.99,10.0,NNE,11.5,-,N/A,,Clear,30,2013-07-09 20:56:00
2:56 PM,93.0,36.0,13,29.97,10.0,NNW,8.1,-,N/A,,Clear,340,2013-07-09 21:56:00
3:56 PM,95.0,36.0,13,29.95,10.0,North,10.4,17.3,N/A,,Clear,10,2013-07-09 22:56:00
4:56 PM,93.9,37.0,14,29.94,10.0,North,11.5,-,N/A,,Clear,360,2013-07-09 23:56:00
5:56 PM,93.9,37.0,14,29.93,10.0,North,11.5,-,N/A,,Clear,350,2013-07-10 00:56:00
6:56 PM,91.9,39.0,16,29.91,10.0,NNW,16.1,-,N/A,,Clear,340,2013-07-10 01:56:00
7:56 PM,86.0,45.0,24,29.93,10.0,WNW,16.1,23.0,N/A,,Clear,300,2013-07-10 02:56:00
8:56 PM,82.0,46.0,28,29.94,10.0,NW,8.1,-,N/A,,Clear,320,2013-07-10 03:56:00
9:56 PM,78.1,48.0,35,29.97,10.0,NNW,6.9,-,N/A,,Clear,330,2013-07-10 04:56:00
10:56 PM,75.0,48.9,40,29.98,10.0,NNW,8.1,-,N/A,,Clear,340,2013-07-10 05:56:00
11:56 PM,73.0,48.9,42,29.99,10.0,WNW,8.1,-,N/A,,Clear,300,2013-07-10 06:56:00